Previsão horária em Almaguer

Hoje, 25 Junho, Sexta-feira

Tempo Temperatura Precipitação Vento Pressão Humidade
00:00 +12°C° 0 mm 1 m/s 588 mmHg 94%
01:00 +11°C° 0 mm 1 m/s 588 mmHg 93%
02:00 +11°C° 0 mm 1 m/s 587 mmHg 93%
03:00 +11°C° 0 mm 1 m/s 587 mmHg 93%
04:00 +11°C° 0 mm 1 m/s 587 mmHg 92%
05:00 +12°C° 0 mm 1 m/s 587 mmHg 92%
06:00 +12°C° 0 mm 1 m/s 588 mmHg 91%
07:00 +13°C° 0 mm 1 m/s 588 mmHg 90%
08:00 +14°C° 0.2 mm 1 m/s 589 mmHg 86%
09:00 +16°C° 0.2 mm 1 m/s 589 mmHg 82%
10:00 +18°C° 0.2 mm 1 m/s 590 mmHg 78%
11:00 +19°C° 0.5 mm 1 m/s 590 mmHg 77%
12:00 +19°C° 0.5 mm 1 m/s 589 mmHg 77%
13:00 +20°C° 0.5 mm 1 m/s 589 mmHg 76%
14:00 +20°C° 1 mm 1 m/s 589 mmHg 78%
15:00 +19°C° 1 mm 1 m/s 588 mmHg 80%
16:00 +19°C° 1 mm 1 m/s 587 mmHg 81%
17:00 +16°C° 1.1 mm 1 m/s 587 mmHg 86%
18:00 +15°C° 1.1 mm 1 m/s 587 mmHg 90%
19:00 +13°C° 1.1 mm 2 m/s 587 mmHg 94%
20:00 +13°C° 0.5 mm 2 m/s 587 mmHg 94%
21:00 +13°C° 0.5 mm 1 m/s 588 mmHg 94%
22:00 +12°C° 0.5 mm 1 m/s 588 mmHg 94%
23:00 +12°C° 0.2 mm 1 m/s 588 mmHg 94%

Amanhã, 26 Junho, Sábado

Tempo Temperatura Precipitação Vento Pressão Humidade
00:00 +12°C° 0.2 mm 1 m/s 587 mmHg 94%
01:00 +11°C° 0.2 mm 1 m/s 587 mmHg 94%
02:00 +11°C° 0.1 mm 1 m/s 587 mmHg 94%
03:00 +11°C° 0.1 mm 1 m/s 587 mmHg 93%
04:00 +11°C° 0.1 mm 1 m/s 586 mmHg 93%
05:00 +11°C° 0 mm 1 m/s 587 mmHg 92%
06:00 +12°C° 0 mm 1 m/s 587 mmHg 91%
07:00 +12°C° 0 mm 1 m/s 588 mmHg 90%
08:00 +14°C° 0.1 mm 1 m/s 588 mmHg 85%
09:00 +16°C° 0.1 mm 1 m/s 589 mmHg 80%
10:00 +19°C° 0.1 mm 1 m/s 590 mmHg 75%
11:00 +19°C° 0.6 mm 1 m/s 590 mmHg 75%
12:00 +19°C° 0.6 mm 1 m/s 589 mmHg 75%
13:00 +20°C° 0.6 mm 1 m/s 589 mmHg 76%
14:00 +20°C° 0.9 mm 1 m/s 588 mmHg 77%
15:00 +19°C° 0.9 mm 1 m/s 588 mmHg 78%
16:00 +17°C° 0.9 mm 0 m/s 587 mmHg 79%
17:00 +18°C° 0.9 mm 1 m/s 587 mmHg 84%
18:00 +15°C° 0.9 mm 1 m/s 587 mmHg 89%
19:00 +14°C° 0.9 mm 2 m/s 587 mmHg 94%
20:00 +13°C° 0.5 mm 2 m/s 587 mmHg 94%
21:00 +13°C° 0.5 mm 2 m/s 587 mmHg 93%
22:00 +12°C° 0.5 mm 2 m/s 587 mmHg 93%
23:00 +12°C° 0.2 mm 1 m/s 587 mmHg 93%

Depois de amanhã, 27 Junho, Domingo

Tempo Temperatura Precipitação Vento Pressão Humidade
00:00 +12°C° 0.2 mm 1 m/s 587 mmHg 93%
01:00 +12°C° 0.2 mm 1 m/s 587 mmHg 93%
02:00 +12°C° 0 mm 1 m/s 587 mmHg 93%
03:00 +12°C° 0 mm 1 m/s 586 mmHg 92%
04:00 +12°C° 0 mm 1 m/s 586 mmHg 92%
05:00 +12°C° 0 mm 1 m/s 587 mmHg 92%
06:00 +13°C° 0 mm 1 m/s 587 mmHg 91%
07:00 +13°C° 0 mm 1 m/s 587 mmHg 90%
08:00 +14°C° 0 mm 1 m/s 588 mmHg 85%
09:00 +16°C° 0 mm 1 m/s 589 mmHg 81%
10:00 +18°C° 0 mm 1 m/s 589 mmHg 76%
11:00 +19°C° 0.5 mm 1 m/s 589 mmHg 75%
12:00 +19°C° 0.5 mm 1 m/s 589 mmHg 75%
13:00 +20°C° 0.5 mm 1 m/s 589 mmHg 74%
14:00 +20°C° 0.8 mm 1 m/s 588 mmHg 76%
15:00 +19°C° 0.8 mm 1 m/s 588 mmHg 77%
16:00 +19°C° 0.8 mm 1 m/s 587 mmHg 79%
17:00 +18°C° 0.9 mm 1 m/s 587 mmHg 84%
18:00 +15°C° 0.9 mm 1 m/s 587 mmHg 89%
19:00 +14°C° 0.9 mm 2 m/s 587 mmHg 94%
20:00 +14°C° 0.5 mm 2 m/s 587 mmHg 94%
21:00 +13°C° 0.5 mm 2 m/s 588 mmHg 94%
22:00 +13°C° 0.5 mm 2 m/s 588 mmHg 94%
23:00 +13°C° 0.1 mm 1 m/s 588 mmHg 94%

28 Junho, Segunda-feira

Tempo Temperatura Precipitação Vento Pressão Humidade
00:00 +13°C° 0.1 mm 1 m/s 587 mmHg 94%
01:00 +12°C° 0.1 mm 1 m/s 587 mmHg 94%
02:00 +12°C° 0 mm 1 m/s 587 mmHg 94%
03:00 +12°C° 0 mm 1 m/s 587 mmHg 94%
04:00 +12°C° 0 mm 1 m/s 587 mmHg 94%
05:00 +13°C° 0 mm 1 m/s 587 mmHg 93%
06:00 +13°C° 0 mm 1 m/s 588 mmHg 92%
07:00 +13°C° 0 mm 1 m/s 588 mmHg 91%
08:00 +15°C° 0.1 mm 1 m/s 589 mmHg 86%
09:00 +16°C° 0.1 mm 1 m/s 589 mmHg 80%
10:00 +19°C° 0.1 mm 1 m/s 590 mmHg 75%
11:00 +19°C° 0.4 mm 1 m/s 590 mmHg 76%
12:00 +19°C° 0.4 mm 1 m/s 589 mmHg 77%
13:00 +19°C° 0.4 mm 1 m/s 589 mmHg 78%
14:00 +18°C° 0.4 mm 1 m/s 588 mmHg 81%
15:00 +16°C° 0.4 mm 1 m/s 588 mmHg 83%
16:00 +15°C° 0.4 mm 1 m/s 587 mmHg 86%
17:00 +15°C° 0.1 mm 2 m/s 587 mmHg 87%
18:00 +14°C° 0.1 mm 2 m/s 588 mmHg 88%
19:00 +14°C° 0.1 mm 2 m/s 588 mmHg 88%
20:00 +13°C° 0.1 mm 2 m/s 588 mmHg 88%
21:00 +13°C° 0.1 mm 2 m/s 588 mmHg 88%
22:00 +13°C° 0.1 mm 2 m/s 588 mmHg 88%
23:00 +13°C° 0.1 mm 2 m/s 588 mmHg 88%

29 Junho, Terça-feira

Tempo Temperatura Precipitação Vento Pressão Humidade
00:00 +13°C° 0.1 mm 1 m/s 588 mmHg 88%
01:00 +13°C° 0.1 mm 1 m/s 588 mmHg 87%
02:00 +13°C° 0.4 mm 1 m/s 588 mmHg 88%
03:00 +13°C° 0.4 mm 1 m/s 588 mmHg 89%
04:00 +13°C° 0.4 mm 1 m/s 588 mmHg 89%
05:00 +13°C° 0.1 mm 1 m/s 588 mmHg 89%
06:00 +13°C° 0.1 mm 1 m/s 588 mmHg 89%
07:00 +13°C° 0.1 mm 2 m/s 589 mmHg 89%
08:00 +15°C° 0.1 mm 1 m/s 589 mmHg 82%
09:00 +16°C° 0.1 mm 1 m/s 590 mmHg 76%
10:00 +19°C° 0.1 mm 1 m/s 591 mmHg 69%
11:00 +19°C° 0.1 mm 1 m/s 590 mmHg 69%
12:00 +19°C° 0.1 mm 1 m/s 590 mmHg 69%
13:00 +19°C° 0.1 mm 1 m/s 590 mmHg 69%
14:00 +19°C° 0.1 mm 1 m/s 589 mmHg 72%
15:00 +17°C° 0.1 mm 2 m/s 588 mmHg 75%
16:00 +16°C° 0.1 mm 2 m/s 588 mmHg 78%
17:00 +15°C° 0 mm 2 m/s 588 mmHg 80%
18:00 +15°C° 0 mm 2 m/s 588 mmHg 82%
19:00 +14°C° 0 mm 2 m/s 588 mmHg 84%
20:00 +13°C° 0 mm 2 m/s 588 mmHg 84%
21:00 +13°C° 0 mm 2 m/s 588 mmHg 85%
22:00 +13°C° 0 mm 2 m/s 589 mmHg 85%
23:00 +13°C° 0 mm 2 m/s 588 mmHg 85%

30 Junho, Quarta-feira

Tempo Temperatura Precipitação Vento Pressão Humidade
00:00 +13°C° 0 mm 2 m/s 588 mmHg 85%
01:00 +13°C° 0 mm 1 m/s 588 mmHg 85%
02:00 +13°C° 0.1 mm 1 m/s 588 mmHg 85%
03:00 +13°C° 0.1 mm 1 m/s 587 mmHg 85%
04:00 +13°C° 0.1 mm 1 m/s 587 mmHg 85%
05:00 +13°C° 0.1 mm 1 m/s 587 mmHg 86%
06:00 +13°C° 0.1 mm 1 m/s 588 mmHg 86%
07:00 +13°C° 0.1 mm 1 m/s 588 mmHg 86%
08:00 +14°C° 0.1 mm 1 m/s 588 mmHg 83%
09:00 +15°C° 0.1 mm 1 m/s 589 mmHg 80%
10:00 +16°C° 0.1 mm 1 m/s 589 mmHg 76%
11:00 +16°C° 0.2 mm 1 m/s 589 mmHg 78%
12:00 +16°C° 0.2 mm 1 m/s 589 mmHg 79%
13:00 +16°C° 0.2 mm 1 m/s 588 mmHg 81%
14:00 +16°C° 0.2 mm 1 m/s 588 mmHg 82%
15:00 +16°C° 0.2 mm 1 m/s 588 mmHg 82%
16:00 +15°C° 0.2 mm 1 m/s 587 mmHg 83%
17:00 +15°C° 0.2 mm 1 m/s 587 mmHg 83%
18:00 +15°C° 0.2 mm 2 m/s 588 mmHg 84%
19:00 +14°C° 0.2 mm 2 m/s 588 mmHg 84%
20:00 +14°C° 0.1 mm 2 m/s 588 mmHg 84%
21:00 +14°C° 0.1 mm 1 m/s 588 mmHg 84%
22:00 +14°C° 0.1 mm 1 m/s 588 mmHg 84%
23:00 +13°C° 0 mm 1 m/s 588 mmHg 85%
Mostrar mais